Regional Weather Roundup
Issued by NWS San Angelo, TX

Home | Current Version | Previous Version | Text Only | Print | Product List | Glossary On
Versions: 1 2 3 4 5 6 7 8 9 10 11 12 13 14 15 16 17 18 19 20 21 22 23 24 25 26 27 28 29 30 31 32 33 34 35 36 37 38 39 40 41 42 43 44 45 46 47 48 49 50
000
ASUS44 KSJT 250810
RWRSJT
WEST CENTRAL TEXAS REGIONAL WEATHER ROUNDUP
NATIONAL WEATHER SERVICE SAN ANGELO TX
200 AM CST SAT FEB 25 2017

NOTE: "FAIR" INDICATES FEW OR NO CLOUDS BELOW 12,000 FEET WITH NO
SIGNIFICANT WEATHER AND/OR OBSTRUCTIONS TO VISIBILITY.

TXZ049-054-064>066-071>073-076>078-098-099-113-114-127-128-139-140-
154-155-168>170-250900
...LOCATIONS ACROSS WEST CENTRAL TEXAS...

CITY           SKY/WX    TMP DP  RH WIND       PRES   REMARKS
SAN ANGELO     CLEAR     39  31  72 N6        30.09R WCI  35
ABILENE        CLEAR     38  24  57 NE8       30.14R WCI  32
DYESS AFB      CLEAR     40  24  54 NE14      30.13R WCI  32
JUNCTION       CLEAR     44  32  62 NE7       30.07R
SWEETWATER     CLEAR     38  24  56 NE9       30.15R WCI  31
BROWNWOOD      MOCLDY    43  27  52 NE7       30.11R WCI  39
COLEMAN        SUNNY     39  29  67 N8        30.11R WCI  34
SONORA         CLEAR     45  30  57 N8        30.11R
OZONA          FAIR      41  28  60 MISG      30.09S
BRADY          NOT AVBL
$$

TEXAS PANHANDLE/OKLAHOMA PANHANDLE

CITY           SKY/WX    TMP DP  RH WIND       PRES   REMARKS
AMARILLO       CLEAR     24  16  71 E8        30.14S WCI  15
BORGER         CLEAR     28  17  63 NE7       30.16S WCI  21
CANADIAN       CLEAR     28  18  68 CALM      30.19R
DALHART        CLEAR     19  12  74 NW6       30.14S WCI  11
DUMAS          SUNNY     17   9  71 CALM      30.14S
GUYMON         NOT AVBL
HEREFORD       SUNNY     22  17  79 NE3       30.14S
PAMPA          SUNNY     24  17  77 NE5       30.16S WCI  18
PERRYTON       CLEAR     22  15  72 NE5       30.15S WCI  16
$$

SOUTHERN PANHANDLE/SOUTH PLAINS/ROLLING PLAINS

CITY           SKY/WX    TMP DP  RH WIND       PRES   REMARKS
LUBBOCK        CLEAR     32  18  56 E10       30.12R WCI  24
SNYDER         CLEAR     38  20  49 NE16G23   30.12S WCI  29
CHILDRESS      CLEAR     33  20  58 NE5       30.19R WCI  29
SEMINOLE       SUNNY     34  20  57 NE7       30.12R WCI  28
$$

PERMIAN BASIN

CITY           SKY/WX    TMP DP  RH WIND       PRES   REMARKS
MIDLAND        CLEAR     44  24  45 E15       30.08R WCI  37
ODESSA         CLEAR     43  22  43 E12       30.09R WCI  37
WINK           CLEAR     42  22  44 NE6       30.05R WCI  38
$$

FAR WEST/SOUTHWEST MOUNTAINS/TRANS PECOS

CITY           SKY/WX    TMP DP  RH WIND       PRES   REMARKS
ALPINE         MOSUNNY   48   1  14 SW8       30.13R
DRYDEN           N/A     51  15  23 N9        30.03R
EL PASO        CLEAR     51   6  16 N8        30.08S
FORT STOCKTON  CLEAR     43   3  19 W5        30.06R
GUADALUPE PASS CLEAR     39   6  25 SW15        N/A  WCI  31
MARFA          CLEAR     38   1  21 S8        30.10R WCI  32
PECOS          SUNNY     46   6  19 N9        30.06R
$$

DALLAS/FORT WORTH METROPLEX

CITY           SKY/WX    TMP DP  RH WIND       PRES   REMARKS
DFW AIRPORT    PTCLDY    44  26  49 N22       30.11R WCI  35
FTW MEACHAM    PTCLDY    42  25  50 N15       30.12R WCI  34
DAL-EXECUTIVE  PTCLDY    44  26  49 N14       30.11R WCI  37
GRAND PRAIRIE  PTCLDY    44  26  49 N20G29    30.14R WCI  35
ADDISON        PTCLDY    41  25  51 N13G18    30.15R WCI  34
MESQUITE       MOSUNNY   42  26  52 N10G21    30.13R WCI  36
LANCASTER      MOSUNNY   43  26  50 N15G24    30.13R WCI  36
$$

NORTH CENTRAL TEXAS

CITY           SKY/WX    TMP DP  RH WIND       PRES   REMARKS
SHRMAN/DENISON MOSUNNY   37  24  57 N13G21    30.17R WCI  29
GAINESVILLE    PTCLDY    36  23  58 N8        30.17R WCI  30
BRIDGEPORT     SUNNY     39  24  56 NE8       30.17R WCI  33
DENTON         CLEAR     38  26  62 N10       30.15R WCI  31
WAXAHACHIE     SUNNY     43  28  56 N12G17    30.12R WCI  37
GRANBURY       MOSUNNY   44  27  52 N10G21    30.15R WCI  38
$$

WESTERN NORTH TEXAS

CITY           SKY/WX    TMP DP  RH WIND       PRES   REMARKS
WICHITA FALLS  PTCLDY    31  25  78 N8        30.18R WCI  23
VERNON         MOSUNNY   35  22  59 NE7       30.20S WCI  29
BRECKENRIDGE   SUNNY     41  24  52 NE10      30.16R WCI  34
COMANCHE       CLEAR     41  29  62 NE10      30.13R WCI  35
$$

CENTRAL AND SOUTH CENTRAL TEXAS

CITY           SKY/WX    TMP DP  RH WIND       PRES   REMARKS
AUSTIN/BERGSTM CLEAR     51  34  52 N14       30.05S
WACO           CLEAR     44  34  67 N12       30.10R WCI  38
HILLSBORO      SUNNY     43  30  60 N7        30.11R WCI  39
TEMPLE         CLEAR     43  34  70 N8        30.09R WCI  38
KILLEEN-GRAY   CLEAR     43  32  64 N13       30.08R WCI  37
FORT HOOD      CLEAR     45  32  61 N13       30.07R WCI  38
GEORGETOWN     CLEAR     45  30  57 N3        30.08R
LAGO VISTA     FAIR      47  32  55 NE12      30.06S
SAN MARCOS     CLEAR     52  32  46 N20       30.05R
NEW BRAUNFELS  CLEAR     50  34  54 NE12      30.02R
RANDOLPH AFB   CLEAR     53  32  45 NE10      30.03R
SAN ANTONIO    CLEAR     54  34  46 N10       30.03R
STINSON        CLEAR     56  34  43 NE12      30.01R
PLEASANTON     NOT AVBL
LA GRANGE      CLEAR     53  38  55 N9        30.01R
GIDDINGS       SUNNY    N/A N/A N/A N7        30.05S
$$

EAST TEXAS

CITY           SKY/WX    TMP DP  RH WIND       PRES   REMARKS
PARIS          CLEAR     37  21  52 N15G21    30.12R WCI  28
CLARKSVILLE    NOT AVBL
TYLER          CLEAR     46  29  51 N9        30.08R
LONGVIEW       CLEAR     48  29  47 N12G24    30.06R
PALESTINE      SUNNY     47  32  56 N12G20    30.08R
NACOGDOCHES    CLEAR     48  30  49 N10       30.02R
$$

TEXAS HILL COUNTRY AND EDWARDS PLATEAU

CITY           SKY/WX    TMP DP  RH WIND       PRES   REMARKS
LLANO          SUNNY     46  32  57 CALM      30.11F
HORSESHOE BAY  FAIR      48  32  55 NE6       30.07S
KERRVILLE      CLEAR     47  33  58 N7        30.05S
FREDERICKSBRG  CLEAR     45  31  58 E3        30.07R
ROCKSPRINGS    SUNNY     46  32  57 E9        30.05S
HONDO          CLEAR     45  34  65 NE10      30.02R WCI  40
UVALDE         SUNNY     48  33  57 NE8       30.02R
DEL RIO        CLEAR     49  31  49 NW5       30.01R
$$

SOUTHEAST TEXAS

CITY           SKY/WX    TMP DP  RH WIND       PRES   REMARKS
COLLEGE STN    CLEAR     50  35  56 N12       30.04R
CALDWELL       NOT AVBL
CROCKETT       SUNNY     46  32  57 N6        30.08R
BRENHAM        CLEAR     48  39  71 NW7       30.04R
HUNTSVILLE     CLEAR     50  34  54 N7        30.03R
CONROE         CLEAR     53  34  48 N7        30.00R
HOUSTON BUSH   CLEAR     54  37  52 N5        30.01R
HOUSTON HOBBY  CLEAR     55  38  52 N12       29.99R
PERLAND        CLEAR     57  39  51 N5        30.01R
WHARTON        SUNNY     52  39  60 N8        30.02R
$$

THE UPPER TEXAS COAST

CITY           SKY/WX    TMP DP  RH WIND       PRES   REMARKS
ORANGE         SUNNY     56  40  54 N6        29.98S
PORT ARTHUR    CLEAR     57  39  51 N13       29.96R
GALVESTON      PTCLDY    61  45  55 N17G28    29.98R
ANGLETON       CLEAR     53  43  68 N5        30.00R
BAY CITY       SUNNY     54  44  68 N7        29.99R
$$

TEXAS COASTAL BEND, RIO GRANDE PLAINS DEEP SOUTH TEXAS

CITY           SKY/WX    TMP DP  RH WIND       PRES   REMARKS
VICTORIA       CLEAR     52  45  77 N8        30.00R
BEEVILLE       FAIR      55  42  63 NE8       29.98R
ROCKPORT       PTCLDY    60  44  55 NE17      29.96R
PORT ARANSAS   SUNNY     61  46  58 NE15G25   29.96R
PORT LAVACA    MOSUNNY   55  47  72 N12       29.99R
CORPUS CHRISTI CLEAR     61  44  53 NE16      29.97R
KINGSVILLE NAS CLEAR     59  40  49 N10       29.97R
COTULLA        CLEAR     56  33  42 E7        30.01R
LAREDO         CLEAR     60  34  37 E9        29.97R
BROWNSVILLE    CLEAR     68  66  93 N5        29.92R
PORT ISABEL    CLEAR     70  63  78 NE10      29.91R
HEBBRONVILLE   SUNNY     55  32  41 CALM      29.98S
MCALLEN        CLEAR     70  58  65 NE8       29.93S
WESLACO        CLEAR     64  58  82 N3        29.92S
FALFURRIAS     SUNNY     57  37  47 N3        29.97R
EDINBURG       SUNNY     67  57  70 N10       29.95S
$$



USA.gov is the U.S. government's official web portal to all federal, state and local government web resources and services.